• In Russia
  • List of Countries
  • For 7 days
  • Water Temperature
  • Satellite Maps
  • Weather Map
  • Weather Widgets
  • user-avatar
    Login

    Hourly Weather Swansea

    Today, 18 October, Wednesday

    Time Temperature Precipitation Wind Pressure Humidity
    00:00 +9°C° 0 mm 3 mps 759 mmHg 92%
    01:00 +9°C° 0 mm 3 mps 759 mmHg 92%
    02:00 +8°C° 0 mm 4 mps 758 mmHg 93%
    03:00 +8°C° 0 mm 4 mps 758 mmHg 94%
    04:00 +8°C° 0 mm 4 mps 757 mmHg 94%
    05:00 +8°C° 0 mm 4 mps 757 mmHg 95%
    06:00 +8°C° 0 mm 4 mps 757 mmHg 95%
    07:00 +9°C° 0 mm 5 mps 757 mmHg 94%
    08:00 +9°C° 0 mm 5 mps 756 mmHg 93%
    09:00 +10°C° 0 mm 5 mps 756 mmHg 92%
    10:00 +12°C° 0.1 mm 5 mps 756 mmHg 91%
    11:00 +12°C° 0.1 mm 4 mps 756 mmHg 91%
    12:00 +12°C° 0.1 mm 4 mps 756 mmHg 91%
    13:00 +13°C° 0 mm 4 mps 755 mmHg 90%
    14:00 +14°C° 0 mm 4 mps 755 mmHg 90%
    15:00 +14°C° 0 mm 4 mps 755 mmHg 89%
    16:00 +14°C° 0 mm 4 mps 755 mmHg 91%
    17:00 +13°C° 0 mm 4 mps 755 mmHg 93%
    18:00 +12°C° 0 mm 4 mps 754 mmHg 95%
    19:00 +12°C° 0 mm 4 mps 754 mmHg 96%
    20:00 +12°C° 0 mm 4 mps 754 mmHg 96%
    21:00 +12°C° 0 mm 4 mps 754 mmHg 96%
    22:00 +12°C° 0 mm 4 mps 754 mmHg 96%
    23:00 +12°C° 0 mm 4 mps 754 mmHg 96%

    Tomorrow, 19 October, Thursday

    Time Temperature Precipitation Wind Pressure Humidity
    00:00 +12°C° 0 mm 4 mps 754 mmHg 96%
    01:00 +12°C° 0 mm 4 mps 753 mmHg 96%
    02:00 +12°C° 0 mm 4 mps 753 mmHg 96%
    03:00 +12°C° 0 mm 4 mps 753 mmHg 95%
    04:00 +12°C° 0 mm 4 mps 752 mmHg 95%
    05:00 +11°C° 0 mm 4 mps 752 mmHg 95%
    06:00 +11°C° 0 mm 4 mps 751 mmHg 95%
    07:00 +12°C° 0 mm 4 mps 751 mmHg 93%
    08:00 +13°C° 0 mm 5 mps 751 mmHg 92%
    09:00 +13°C° 0 mm 5 mps 750 mmHg 90%
    10:00 +14°C° 0 mm 6 mps 750 mmHg 89%
    11:00 +15°C° 0 mm 6 mps 750 mmHg 88%
    12:00 +16°C° 0 mm 6 mps 750 mmHg 87%
    13:00 +15°C° 0.1 mm 6 mps 749 mmHg 87%
    14:00 +15°C° 0.1 mm 6 mps 748 mmHg 87%
    15:00 +15°C° 0.1 mm 5 mps 748 mmHg 86%
    16:00 +14°C° 1.1 mm 6 mps 748 mmHg 88%
    17:00 +14°C° 1.1 mm 6 mps 747 mmHg 91%
    18:00 +12°C° 1.1 mm 7 mps 747 mmHg 93%
    19:00 +12°C° 1.5 mm 7 mps 747 mmHg 93%
    20:00 +14°C° 1.5 mm 7 mps 747 mmHg 93%
    21:00 +13°C° 1.5 mm 8 mps 747 mmHg 94%
    22:00 +14°C° 0.6 mm 7 mps 746 mmHg 94%
    23:00 +14°C° 0.6 mm 5 mps 746 mmHg 95%

    Day after tomorrow, 20 October, Friday

    Time Temperature Precipitation Wind Pressure Humidity
    00:00 +14°C° 0.6 mm 4 mps 746 mmHg 95%
    01:00 +13°C° 0 mm 4 mps 746 mmHg 96%
    02:00 +13°C° 0 mm 3 mps 747 mmHg 96%
    03:00 +14°C° 0 mm 2 mps 747 mmHg 97%
    04:00 +14°C° 0.1 mm 2 mps 748 mmHg 97%
    05:00 +13°C° 0.1 mm 3 mps 748 mmHg 97%
    06:00 +13°C° 0.1 mm 3 mps 749 mmHg 97%
    07:00 +13°C° 0.1 mm 3 mps 749 mmHg 96%
    08:00 +14°C° 0.1 mm 3 mps 750 mmHg 94%
    09:00 +14°C° 0.1 mm 3 mps 750 mmHg 93%
    10:00 +14°C° 0 mm 4 mps 751 mmHg 93%
    11:00 +14°C° 0 mm 5 mps 751 mmHg 92%
    12:00 +14°C° 0 mm 6 mps 752 mmHg 92%
    13:00 +14°C° 0 mm 6 mps 752 mmHg 89%
    14:00 +13°C° 0 mm 6 mps 752 mmHg 87%
    15:00 +13°C° 0 mm 6 mps 751 mmHg 85%
    16:00 +11°C° 0.6 mm 6 mps 751 mmHg 86%
    17:00 +11°C° 0.6 mm 7 mps 750 mmHg 87%
    18:00 +10°C° 0.6 mm 7 mps 750 mmHg 88%
    19:00 +11°C° 1.7 mm 8 mps 749 mmHg 90%
    20:00 +12°C° 1.7 mm 9 mps 749 mmHg 91%
    21:00 +12°C° 1.7 mm 10 mps 748 mmHg 93%
    22:00 +12°C° 0.7 mm 10 mps 748 mmHg 91%
    23:00 +12°C° 0.7 mm 10 mps 747 mmHg 89%

    21 October, Saturday

    Time Temperature Precipitation Wind Pressure Humidity
    00:00 +12°C° 0.7 mm 10 mps 747 mmHg 87%
    01:00 +12°C° 0.2 mm 11 mps 746 mmHg 86%
    02:00 +11°C° 0.2 mm 11 mps 746 mmHg 84%
    03:00 +9°C° 0.2 mm 12 mps 745 mmHg 83%
    04:00 +10°C° 0.2 mm 13 mps 745 mmHg 82%
    05:00 +10°C° 0.2 mm 14 mps 744 mmHg 82%
    06:00 +10°C° 0.2 mm 15 mps 743 mmHg 81%
    07:00 +10°C° 0.6 mm 16 mps 742 mmHg 80%
    08:00 +10°C° 0.6 mm 17 mps 742 mmHg 80%
    09:00 +11°C° 0.6 mm 17 mps 741 mmHg 79%
    10:00 +11°C° 1.8 mm 17 mps 741 mmHg 81%
    11:00 +10°C° 1.8 mm 17 mps 741 mmHg 83%
    12:00 +10°C° 1.8 mm 18 mps 741 mmHg 86%
    13:00 +10°C° 0.8 mm 16 mps 742 mmHg 85%
    14:00 +11°C° 0.8 mm 15 mps 742 mmHg 84%
    15:00 +12°C° 0.8 mm 13 mps 743 mmHg 84%
    16:00 +10°C° 0.4 mm 13 mps 744 mmHg 84%
    17:00 +10°C° 0.4 mm 13 mps 746 mmHg 84%
    18:00 +9°C° 0.4 mm 13 mps 747 mmHg 84%
    19:00 +9°C° 0.3 mm 13 mps 748 mmHg 83%
    20:00 +9°C° 0.3 mm 13 mps 749 mmHg 83%
    21:00 +8°C° 0.3 mm 13 mps 750 mmHg 82%
    22:00 +8°C° 0.2 mm 13 mps 751 mmHg 82%
    23:00 +8°C° 0.2 mm 13 mps 752 mmHg 82%

    22 October, Sunday

    Time Temperature Precipitation Wind Pressure Humidity
    00:00 +8°C° 0.2 mm 13 mps 753 mmHg 83%
    01:00 +8°C° 0.2 mm 12 mps 753 mmHg 82%
    02:00 +7°C° 0.2 mm 12 mps 754 mmHg 81%
    03:00 +7°C° 0.2 mm 11 mps 754 mmHg 80%
    04:00 +7°C° 0.1 mm 11 mps 755 mmHg 79%
    05:00 +7°C° 0.1 mm 11 mps 756 mmHg 79%
    06:00 +7°C° 0.1 mm 10 mps 756 mmHg 78%
    07:00 +7°C° 0 mm 10 mps 757 mmHg 77%
    08:00 +7°C° 0 mm 10 mps 757 mmHg 76%
    09:00 +8°C° 0 mm 10 mps 758 mmHg 74%
    10:00 +8°C° 0.1 mm 10 mps 758 mmHg 73%
    11:00 +9°C° 0.1 mm 10 mps 759 mmHg 72%
    12:00 +9°C° 0.1 mm 10 mps 759 mmHg 70%
    13:00 +9°C° 0.1 mm 10 mps 759 mmHg 72%
    14:00 +11°C° 0.1 mm 10 mps 759 mmHg 73%
    15:00 +11°C° 0.1 mm 9 mps 760 mmHg 74%
    16:00 +10°C° 0.1 mm 9 mps 760 mmHg 77%
    17:00 +10°C° 0.1 mm 8 mps 760 mmHg 80%
    18:00 +9°C° 0.1 mm 7 mps 761 mmHg 83%
    19:00 +9°C° 0 mm 7 mps 761 mmHg 84%
    20:00 +9°C° 0 mm 6 mps 761 mmHg 86%
    21:00 +9°C° 0 mm 6 mps 761 mmHg 87%
    22:00 +9°C° 0 mm 6 mps 761 mmHg 87%
    23:00 +9°C° 0 mm 6 mps 761 mmHg 88%

    23 October, Monday

    Time Temperature Precipitation Wind Pressure Humidity
    00:00 +10°C° 0 mm 6 mps 761 mmHg 88%
    01:00 +10°C° 0.1 mm 6 mps 761 mmHg 89%
    02:00 +10°C° 0.1 mm 6 mps 761 mmHg 89%
    03:00 +10°C° 0.1 mm 7 mps 760 mmHg 90%
    04:00 +11°C° 0.1 mm 7 mps 760 mmHg 90%
    05:00 +11°C° 0.1 mm 7 mps 760 mmHg 91%
    06:00 +11°C° 0.1 mm 8 mps 760 mmHg 91%
    07:00 +12°C° 0.1 mm 8 mps 760 mmHg 91%
    08:00 +12°C° 0.1 mm 8 mps 760 mmHg 90%
    09:00 +13°C° 0.1 mm 9 mps 760 mmHg 90%
    10:00 +13°C° 0.1 mm 9 mps 760 mmHg 89%
    11:00 +13°C° 0.1 mm 9 mps 760 mmHg 88%
    12:00 +13°C° 0.1 mm 9 mps 760 mmHg 88%
    13:00 +13°C° 0.2 mm 9 mps 760 mmHg 88%
    14:00 +13°C° 0.2 mm 9 mps 759 mmHg 88%
    15:00 +13°C° 0.2 mm 9 mps 759 mmHg 88%
    16:00 +13°C° 0.1 mm 9 mps 759 mmHg 88%
    17:00 +13°C° 0.1 mm 9 mps 759 mmHg 88%
    18:00 +12°C° 0.1 mm 8 mps 759 mmHg 88%
    19:00 +12°C° 0.1 mm 9 mps 759 mmHg 89%
    20:00 +12°C° 0.1 mm 9 mps 759 mmHg 89%
    21:00 +12°C° 0.1 mm 9 mps 759 mmHg 89%
    22:00 +12°C° 0.3 mm 9 mps 759 mmHg 89%
    23:00 +12°C° 0.3 mm 9 mps 759 mmHg 89%
    Show more